Location: Krasnoyarskiy Pitomnik
(51.1333°N, 71.6167°E)
Time: 00:51:39
(UTC+00:00)

NOSS 2-2 (C) - Pass Details

Date: 04 June 2022
Orbit: 439 x 1763 km, 63.3° (Epoch: 02 June)

Event Time Altitude Azimuth Distance (km) Brightness Sun altitude
Rises 17:26:55 0° 314° (NW) 2,918 8.4 -12.8°
Reaches altitude 10° 17:28:54 10° 311° (NW) 2,142 7.4 -13.0°
Maximum altitude 17:33:44 69° 229° (SW) 917 4.3 -13.3°
Enters shadow 17:38:44 18° 151° (SSE) 2,306 5.8 -13.6°
